contact:dominique.lefevre@mio.osupytheas.fr, maurice.libes@osupytheas.fr, didier.mallarino@osupytheas.fr
Project:EMSO http://www.emso-fr.org/EMSO-France
Depth: 2436.0 m
Title:EMSO Ligure Ouest : Data MII capteur CSTAR
DateTime,Latitude,Longitude,Instrument_Serial,Reference_Counts,Signal_Counts,Corrected_Signal_raw_counts,Calculated_Beam_c_inverse_meters,Internal_thermistor_counts
DateTime,Latitude,Longitude,Instrument_Serial,Reference_Counts,Signal_Counts,Corrected_Signal_raw_counts,Calculated_Beam_c_inverse_meters,Internal_thermistor_counts
2021-10-06T00:02:37,42.805,6.029,CST-1368DR,5171,6968,14425,0.317,551
2021-10-06T00:05:38,42.805,6.029,CST-1368DR,5171,6970,14429,0.316,551
2021-10-06T00:08:40,42.805,6.029,CST-1368DR,5171,6970,14429,0.316,551
2021-10-06T00:11:41,42.805,6.029,CST-1368DR,5171,6970,14430,0.316,551
2021-10-06T00:14:43,42.805,6.029,CST-1368DR,5171,6970,14429,0.316,551
2021-10-06T00:17:45,42.805,6.029,CST-1368DR,5171,6969,14428,0.317,551
2021-10-06T00:20:46,42.805,6.029,CST-1368DR,5171,6971,14431,0.316,551
2021-10-06T00:23:48,42.805,6.029,CST-1368DR,5171,6968,14425,0.317,551
2021-10-06T00:26:49,42.805,6.029,CST-1368DR,5171,6970,14429,0.316,551
2021-10-06T00:29:51,42.805,6.029,CST-1368DR,5171,6970,14428,0.317,551
2021-10-06T00:32:53,42.805,6.029,CST-1368DR,5171,6969,14427,0.317,551
2021-10-06T00:35:54,42.805,6.029,CST-1368DR,5171,6969,14428,0.317,551
2021-10-06T00:38:56,42.805,6.029,CST-1368DR,5171,6969,14428,0.317,551
2021-10-06T00:41:57,42.805,6.029,CST-1368DR,5171,6968,14426,0.317,551
2021-10-06T00:44:59,42.805,6.029,CST-1368DR,5171,6969,14426,0.317,551
2021-10-06T00:48:00,42.805,6.029,CST-1368DR,5171,6969,14427,0.317,551
2021-10-06T00:51:02,42.805,6.029,CST-1368DR,5171,6970,14429,0.316,551
2021-10-06T00:54:04,42.805,6.029,CST-1368DR,5171,6971,14430,0.316,551
2021-10-06T00:57:05,42.805,6.029,CST-1368DR,5171,6969,14426,0.317,551
2021-10-06T01:00:07,42.805,6.029,CST-1368DR,5171,6968,14425,0.317,551
2021-10-06T01:03:08,42.805,6.029,CST-1368DR,5171,6968,14425,0.317,551
2021-10-06T01:06:10,42.805,6.029,CST-1368DR,5171,6968,14426,0.317,551
2021-10-06T01:09:11,42.805,6.029,CST-1368DR,5171,6970,14428,0.317,551
2021-10-06T01:12:13,42.805,6.029,CST-1368DR,5171,6968,14425,0.317,551
2021-10-06T01:15:15,42.805,6.029,CST-1368DR,5171,6969,14426,0.317,551
2021-10-06T01:18:16,42.805,6.029,CST-1368DR,5171,6970,14429,0.316,551
2021-10-06T01:21:18,42.805,6.029,CST-1368DR,5171,6969,14428,0.317,551
2021-10-06T01:24:19,42.805,6.029,CST-1368DR,5171,6968,14424,0.318,551
2021-10-06T01:27:21,42.805,6.029,CST-1368DR,5171,6967,14423,0.318,551
2021-10-06T01:30:23,42.805,6.029,CST-1368DR,5171,6969,14426,0.317,551
2021-10-06T01:33:24,42.805,6.029,CST-1368DR,5171,6970,14429,0.316,551
2021-10-06T01:36:26,42.805,6.029,CST-1368DR,5171,6970,14428,0.317,551
2021-10-06T01:39:27,42.805,6.029,CST-1368DR,5171,6969,14427,0.317,551
2021-10-06T01:42:29,42.805,6.029,CST-1368DR,5171,6969,14428,0.317,551
2021-10-06T01:45:30,42.805,6.029,CST-1368DR,5171,6968,14425,0.317,551
2021-10-06T01:48:32,42.805,6.029,CST-1368DR,5171,6968,14426,0.317,551
2021-10-06T01:51:34,42.805,6.029,CST-1368DR,5171,6969,14426,0.317,551
2021-10-06T01:54:35,42.805,6.029,CST-1368DR,5171,6968,14426,0.317,551
2021-10-06T01:57:37,42.805,6.029,CST-1368DR,5171,6968,14424,0.318,551
2021-10-06T02:00:38,42.805,6.029,CST-1368DR,5171,6969,14426,0.317,551
2021-10-06T02:03:40,42.805,6.029,CST-1368DR,5171,6969,14427,0.317,551
2021-10-06T02:06:41,42.805,6.029,CST-1368DR,5171,6965,14419,0.319,551
2021-10-06T02:09:43,42.805,6.029,CST-1368DR,5171,6968,14424,0.318,551
2021-10-06T02:12:45,42.805,6.029,CST-1368DR,5171,6968,14425,0.317,551
2021-10-06T02:15:46,42.805,6.029,CST-1368DR,5171,6965,14419,0.319,551
2021-10-06T02:18:48,42.805,6.029,CST-1368DR,5171,6968,14426,0.317,551
2021-10-06T02:21:49,42.805,6.029,CST-1368DR,5171,6968,14426,0.317,551
2021-10-06T02:24:51,42.805,6.029,CST-1368DR,5171,6968,14425,0.317,551
2021-10-06T02:27:53,42.805,6.029,CST-1368DR,5171,6968,14426,0.317,551
2021-10-06T02:30:54,42.805,6.029,CST-1368DR,5171,6967,14423,0.318,551
2021-10-06T02:33:56,42.805,6.029,CST-1368DR,5171,6968,14425,0.317,551
2021-10-06T02:36:57,42.805,6.029,CST-1368DR,5171,6968,14424,0.318,551
2021-10-06T02:39:59,42.805,6.029,CST-1368DR,5171,6967,14422,0.318,551
2021-10-06T02:43:00,42.805,6.029,CST-1368DR,5171,6965,14419,0.319,551
2021-10-06T02:46:02,42.805,6.029,CST-1368DR,5171,6968,14425,0.317,551
2021-10-06T02:49:04,42.805,6.029,CST-1368DR,5171,6967,14423,0.318,551
2021-10-06T02:52:05,42.805,6.029,CST-1368DR,5171,6969,14427,0.317,551
2021-10-06T02:55:07,42.805,6.029,CST-1368DR,5171,6968,14424,0.318,551
2021-10-06T02:58:08,42.805,6.029,CST-1368DR,5171,6968,14424,0.318,551
2021-10-06T03:01:10,42.805,6.029,CST-1368DR,5171,6957,14402,0.324,551
2021-10-06T03:04:12,42.805,6.029,CST-1368DR,5171,6967,14422,0.318,551
2021-10-06T03:07:13,42.805,6.029,CST-1368DR,5171,6967,14423,0.318,551
2021-10-06T03:10:15,42.805,6.029,CST-1368DR,5171,6966,14421,0.318,551
2021-10-06T03:13:16,42.805,6.029,CST-1368DR,5171,6966,14421,0.318,551
2021-10-06T03:16:18,42.805,6.029,CST-1368DR,5171,6966,14421,0.318,551
2021-10-06T03:19:19,42.805,6.029,CST-1368DR,5171,6968,14424,0.318,551
2021-10-06T03:22:21,42.805,6.029,CST-1368DR,5171,6968,14426,0.317,551
2021-10-06T03:25:23,42.805,6.029,CST-1368DR,5171,6967,14423,0.318,551
2021-10-06T03:28:24,42.805,6.029,CST-1368DR,5171,6965,14419,0.319,551
2021-10-06T03:31:26,42.805,6.029,CST-1368DR,5171,6965,14418,0.319,551
2021-10-06T03:34:27,42.805,6.029,CST-1368DR,5171,6965,14419,0.319,551
2021-10-06T03:37:29,42.805,6.029,CST-1368DR,5171,6966,14421,0.318,551
2021-10-06T03:40:30,42.805,6.029,CST-1368DR,5171,6966,14421,0.318,551
2021-10-06T03:43:32,42.805,6.029,CST-1368DR,5171,6965,14419,0.319,551
2021-10-06T03:46:34,42.805,6.029,CST-1368DR,5171,6966,14422,0.318,551
2021-10-06T03:49:35,42.805,6.029,CST-1368DR,5171,6967,14422,0.318,551
2021-10-06T03:52:37,42.805,6.029,CST-1368DR,5171,6964,14417,0.320,551
2021-10-06T03:55:38,42.805,6.029,CST-1368DR,5171,6966,14421,0.318,551
2021-10-06T03:58:40,42.805,6.029,CST-1368DR,5171,6966,14421,0.318,551
2021-10-06T04:01:42,42.805,6.029,CST-1368DR,5171,6966,14420,0.319,551
2021-10-06T04:04:43,42.805,6.029,CST-1368DR,5171,6965,14419,0.319,551
2021-10-06T04:07:45,42.805,6.029,CST-1368DR,5171,6956,14399,0.325,551
2021-10-06T04:10:46,42.805,6.029,CST-1368DR,5171,6963,14415,0.320,551
2021-10-06T04:13:48,42.805,6.029,CST-1368DR,5171,6965,14418,0.319,551
2021-10-06T04:16:49,42.805,6.029,CST-1368DR,5171,6966,14421,0.318,551
2021-10-06T04:19:51,42.805,6.029,CST-1368DR,5171,6965,14418,0.319,551
2021-10-06T04:22:53,42.805,6.029,CST-1368DR,5171,6965,14419,0.319,551
2021-10-06T04:25:54,42.805,6.029,CST-1368DR,5171,6964,14416,0.320,551
2021-10-06T04:28:56,42.805,6.029,CST-1368DR,5171,6965,14418,0.319,551
2021-10-06T04:31:57,42.805,6.029,CST-1368DR,5171,6965,14419,0.319,551
2021-10-06T04:34:59,42.805,6.029,CST-1368DR,5171,6965,14419,0.319,551
2021-10-06T04:38:00,42.805,6.029,CST-1368DR,5171,6964,14416,0.320,551
2021-10-06T04:41:02,42.805,6.029,CST-1368DR,5171,6962,14412,0.321,551
2021-10-06T04:44:04,42.805,6.029,CST-1368DR,5171,6964,14416,0.320,551
2021-10-06T04:47:05,42.805,6.029,CST-1368DR,5171,6965,14418,0.319,551
2021-10-06T04:50:07,42.805,6.029,CST-1368DR,5171,6963,14414,0.320,551
2021-10-06T04:53:08,42.805,6.029,CST-1368DR,5171,6951,14390,0.327,551
2021-10-06T04:56:10,42.805,6.029,CST-1368DR,5171,6964,14417,0.320,551
2021-10-06T04:59:12,42.805,6.029,CST-1368DR,5171,6965,14419,0.319,551
2021-10-06T05:02:13,42.805,6.029,CST-1368DR,5171,6963,14415,0.320,551
2021-10-06T05:05:15,42.805,6.029,CST-1368DR,5171,6964,14417,0.320,551
2021-10-06T05:08:16,42.805,6.029,CST-1368DR,5171,6964,14416,0.320,551
2021-10-06T05:11:18,42.805,6.029,CST-1368DR,5171,6964,14417,0.320,551
2021-10-06T05:14:19,42.805,6.029,CST-1368DR,5171,6965,14419,0.319,551
2021-10-06T05:17:21,42.805,6.029,CST-1368DR,5171,6964,14416,0.320,551
2021-10-06T05:20:23,42.805,6.029,CST-1368DR,5171,6965,14418,0.319,550
2021-10-06T05:23:24,42.805,6.029,CST-1368DR,5171,6965,14418,0.319,551
2021-10-06T05:26:26,42.805,6.029,CST-1368DR,5171,6964,14417,0.320,551
2021-10-06T05:29:27,42.805,6.029,CST-1368DR,5171,6964,14417,0.320,551
2021-10-06T05:32:29,42.805,6.029,CST-1368DR,5171,6965,14419,0.319,551
2021-10-06T05:35:31,42.805,6.029,CST-1368DR,5171,6964,14417,0.320,551
2021-10-06T05:38:32,42.805,6.029,CST-1368DR,5171,6965,14419,0.319,551
2021-10-06T05:41:34,42.805,6.029,CST-1368DR,5171,6966,14421,0.318,551
2021-10-06T05:44:35,42.805,6.029,CST-1368DR,5171,6965,14419,0.319,551
2021-10-06T05:47:37,42.805,6.029,CST-1368DR,5171,6966,14421,0.318,551
2021-10-06T05:50:38,42.805,6.029,CST-1368DR,5171,6964,14416,0.320,551
2021-10-06T05:53:40,42.805,6.029,CST-1368DR,5171,6968,14426,0.317,551
2021-10-06T05:56:42,42.805,6.029,CST-1368DR,5171,6969,14426,0.317,551
2021-10-06T05:59:43,42.805,6.029,CST-1368DR,5171,6967,14423,0.318,551
2021-10-06T06:02:45,42.805,6.029,CST-1368DR,5171,6968,14426,0.317,551
2021-10-06T06:05:46,42.805,6.029,CST-1368DR,5171,6967,14423,0.318,551
2021-10-06T06:08:48,42.805,6.029,CST-1368DR,5171,6968,14425,0.317,551
2021-10-06T06:11:49,42.805,6.029,CST-1368DR,5171,6968,14425,0.317,551
2021-10-06T06:14:51,42.805,6.029,CST-1368DR,5171,6968,14424,0.318,551
2021-10-06T06:17:53,42.805,6.029,CST-1368DR,5171,6967,14423,0.318,551
2021-10-06T06:20:54,42.805,6.029,CST-1368DR,5170,6964,14419,0.319,551
2021-10-06T06:23:56,42.805,6.029,CST-1368DR,5171,6967,14424,0.318,551
2021-10-06T06:26:57,42.805,6.029,CST-1368DR,5170,6968,14428,0.317,551
2021-10-06T06:29:59,42.805,6.029,CST-1368DR,5170,6968,14428,0.317,551
2021-10-06T06:33:01,42.805,6.029,CST-1368DR,5171,6969,14426,0.317,551
2021-10-06T06:36:02,42.805,6.029,CST-1368DR,5171,6969,14426,0.317,551
2021-10-06T06:39:04,42.805,6.029,CST-1368DR,5171,6969,14426,0.317,551
2021-10-06T06:42:05,42.805,6.029,CST-1368DR,5171,6968,14426,0.317,551
2021-10-06T06:45:07,42.805,6.029,CST-1368DR,5171,6970,14428,0.317,551
2021-10-06T06:48:08,42.805,6.029,CST-1368DR,5171,6970,14429,0.316,551
2021-10-06T06:51:10,42.805,6.029,CST-1368DR,5171,6969,14428,0.317,551
2021-10-06T06:54:12,42.805,6.029,CST-1368DR,5170,6969,14430,0.316,551
2021-10-06T06:57:13,42.805,6.029,CST-1368DR,5171,6967,14423,0.318,551
2021-10-06T07:00:15,42.805,6.029,CST-1368DR,5171,6970,14429,0.316,551
2021-10-06T07:03:16,42.805,6.029,CST-1368DR,5170,6966,14424,0.318,551
2021-10-06T07:06:18,42.805,6.029,CST-1368DR,5170,6968,14428,0.317,550
2021-10-06T07:09:20,42.805,6.029,CST-1368DR,5170,6969,14430,0.316,551
2021-10-06T07:12:21,42.805,6.029,CST-1368DR,5170,6969,14429,0.316,551
2021-10-06T07:15:23,42.805,6.029,CST-1368DR,5170,6968,14428,0.317,551
2021-10-06T07:18:24,42.805,6.029,CST-1368DR,5171,6969,14428,0.317,551
2021-10-06T07:21:26,42.805,6.029,CST-1368DR,5170,6963,14417,0.320,551
2021-10-06T07:24:27,42.805,6.029,CST-1368DR,5170,6969,14429,0.316,551
2021-10-06T07:27:29,42.805,6.029,CST-1368DR,5170,6968,14427,0.317,551
2021-10-06T07:30:31,42.805,6.029,CST-1368DR,5170,6968,14428,0.317,550
2021-10-06T07:33:32,42.805,6.029,CST-1368DR,5170,6967,14425,0.317,551
2021-10-06T07:36:34,42.805,6.029,CST-1368DR,5170,6966,14423,0.318,551
2021-10-06T07:39:35,42.805,6.029,CST-1368DR,5170,6960,14411,0.321,551
2021-10-06T07:42:37,42.805,6.029,CST-1368DR,5170,6968,14427,0.317,551
2021-10-06T07:45:38,42.805,6.029,CST-1368DR,5170,6965,14422,0.318,551
2021-10-06T07:48:40,42.805,6.029,CST-1368DR,5170,6967,14426,0.317,551
2021-10-06T07:51:42,42.805,6.029,CST-1368DR,5170,6968,14428,0.317,550
2021-10-06T07:54:43,42.805,6.029,CST-1368DR,5170,6964,14420,0.319,551
2021-10-06T07:57:45,42.805,6.029,CST-1368DR,5170,6962,14415,0.320,551
2021-10-06T08:00:46,42.805,6.029,CST-1368DR,5170,6946,14382,0.329,551
2021-10-06T08:03:48,42.805,6.029,CST-1368DR,5170,6948,14385,0.328,551
2021-10-06T08:06:50,42.805,6.029,CST-1368DR,5170,6949,14389,0.327,550
2021-10-06T08:09:51,42.805,6.029,CST-1368DR,5170,6960,14411,0.321,551
2021-10-06T08:12:53,42.805,6.029,CST-1368DR,5170,6963,14417,0.320,551
2021-10-06T08:15:54,42.805,6.029,CST-1368DR,5170,6967,14425,0.317,551
2021-10-06T08:18:56,42.805,6.029,CST-1368DR,5170,6962,14416,0.320,551
2021-10-06T08:21:57,42.805,6.029,CST-1368DR,5170,6965,14421,0.318,551
2021-10-06T08:24:59,42.805,6.029,CST-1368DR,5170,6965,14422,0.318,551
2021-10-06T08:28:01,42.805,6.029,CST-1368DR,5170,6967,14426,0.317,551
2021-10-06T08:31:02,42.805,6.029,CST-1368DR,5170,6967,14426,0.317,551
2021-10-06T08:34:04,42.805,6.029,CST-1368DR,5170,6965,14421,0.318,551
2021-10-06T08:37:05,42.805,6.029,CST-1368DR,5170,6968,14427,0.317,551
2021-10-06T08:40:07,42.805,6.029,CST-1368DR,5170,6968,14428,0.317,551
2021-10-06T08:43:08,42.805,6.029,CST-1368DR,5170,6966,14424,0.318,550
2021-10-06T08:46:10,42.805,6.029,CST-1368DR,5170,6967,14426,0.317,551
2021-10-06T08:49:12,42.805,6.029,CST-1368DR,5170,6967,14425,0.317,551
2021-10-06T08:52:13,42.805,6.029,CST-1368DR,5170,6967,14426,0.317,551
2021-10-06T08:55:15,42.805,6.029,CST-1368DR,5170,6967,14426,0.317,551
2021-10-06T08:58:16,42.805,6.029,CST-1368DR,5170,6968,14427,0.317,551
2021-10-06T09:01:18,42.805,6.029,CST-1368DR,5170,6966,14423,0.318,551
2021-10-06T09:04:20,42.805,6.029,CST-1368DR,5170,6967,14426,0.317,551
2021-10-06T09:07:21,42.805,6.029,CST-1368DR,5170,6966,14423,0.318,551
2021-10-06T09:10:23,42.805,6.029,CST-1368DR,5170,6967,14425,0.317,551
2021-10-06T09:13:24,42.805,6.029,CST-1368DR,5170,6968,14427,0.317,551
2021-10-06T09:16:26,42.805,6.029,CST-1368DR,5170,6968,14428,0.317,551
2021-10-06T09:19:27,42.805,6.029,CST-1368DR,5170,6968,14427,0.317,551
2021-10-06T09:22:29,42.805,6.029,CST-1368DR,5170,6968,14427,0.317,551
2021-10-06T09:25:31,42.805,6.029,CST-1368DR,5170,6966,14423,0.318,551
2021-10-06T09:28:32,42.805,6.029,CST-1368DR,5170,6967,14425,0.317,551
2021-10-06T09:31:34,42.805,6.029,CST-1368DR,5170,6967,14425,0.317,551
2021-10-06T09:34:35,42.805,6.029,CST-1368DR,5170,6967,14426,0.317,551
2021-10-06T09:37:37,42.805,6.029,CST-1368DR,5170,6963,14417,0.320,551
2021-10-06T09:40:38,42.805,6.029,CST-1368DR,5170,6968,14427,0.317,551
2021-10-06T09:43:40,42.805,6.029,CST-1368DR,5170,6967,14425,0.317,551
2021-10-06T09:46:42,42.805,6.029,CST-1368DR,5170,6967,14426,0.317,551
2021-10-06T09:49:43,42.805,6.029,CST-1368DR,5170,6964,14419,0.319,551
2021-10-06T09:52:45,42.805,6.029,CST-1368DR,5170,6967,14425,0.317,551
2021-10-06T09:55:46,42.805,6.029,CST-1368DR,5170,6966,14423,0.318,551
2021-10-06T09:58:48,42.805,6.029,CST-1368DR,5170,6966,14424,0.318,550
2021-10-06T10:01:50,42.805,6.029,CST-1368DR,5170,6967,14425,0.317,551
2021-10-06T10:04:51,42.805,6.029,CST-1368DR,5170,6966,14424,0.318,551
2021-10-06T10:07:53,42.805,6.029,CST-1368DR,5170,6967,14426,0.317,551
2021-10-06T10:10:54,42.805,6.029,CST-1368DR,5170,6968,14428,0.317,551
2021-10-06T10:13:56,42.805,6.029,CST-1368DR,5170,6968,14427,0.317,551
2021-10-06T10:16:57,42.805,6.029,CST-1368DR,5170,6966,14423,0.318,551
2021-10-06T10:19:59,42.805,6.029,CST-1368DR,5170,6968,14427,0.317,551
2021-10-06T10:23:01,42.805,6.029,CST-1368DR,5170,6963,14417,0.320,551
2021-10-06T10:26:02,42.805,6.029,CST-1368DR,5170,6964,14420,0.319,551
2021-10-06T10:29:04,42.805,6.029,CST-1368DR,5170,6967,14425,0.317,551
2021-10-06T10:32:05,42.805,6.029,CST-1368DR,5170,6966,14423,0.318,551
2021-10-06T10:35:07,42.805,6.029,CST-1368DR,5170,6964,14419,0.319,551
2021-10-06T10:38:09,42.805,6.029,CST-1368DR,5170,6966,14423,0.318,551
2021-10-06T10:41:10,42.805,6.029,CST-1368DR,5170,6966,14423,0.318,551
2021-10-06T10:44:12,42.805,6.029,CST-1368DR,5170,6964,14420,0.319,551
2021-10-06T10:47:13,42.805,6.029,CST-1368DR,5170,6964,14419,0.319,551
2021-10-06T10:50:15,42.805,6.029,CST-1368DR,5170,6965,14422,0.318,551
2021-10-06T10:53:16,42.805,6.029,CST-1368DR,5170,6966,14423,0.318,551
2021-10-06T10:56:18,42.805,6.029,CST-1368DR,5170,6966,14423,0.318,551
2021-10-06T10:59:20,42.805,6.029,CST-1368DR,5170,6965,14421,0.318,551
2021-10-06T11:02:21,42.805,6.029,CST-1368DR,5170,6966,14423,0.318,551
2021-10-06T11:05:23,42.805,6.029,CST-1368DR,5170,6968,14427,0.317,551
2021-10-06T11:08:24,42.805,6.029,CST-1368DR,5170,6965,14421,0.318,551
2021-10-06T11:11:26,42.805,6.029,CST-1368DR,5170,6966,14423,0.318,551
2021-10-06T11:14:28,42.805,6.029,CST-1368DR,5170,6966,14424,0.318,551
2021-10-06T11:17:29,42.805,6.029,CST-1368DR,5170,6966,14424,0.318,551
2021-10-06T11:20:31,42.805,6.029,CST-1368DR,5170,6964,14420,0.319,551
2021-10-06T11:23:32,42.805,6.029,CST-1368DR,5170,6966,14423,0.318,551
2021-10-06T11:26:34,42.805,6.029,CST-1368DR,5170,6964,14420,0.319,551
2021-10-06T11:29:35,42.805,6.029,CST-1368DR,5170,6966,14423,0.318,551
2021-10-06T11:32:37,42.805,6.029,CST-1368DR,5170,6965,14422,0.318,551
2021-10-06T11:35:39,42.805,6.029,CST-1368DR,5170,6966,14424,0.318,551
2021-10-06T11:38:40,42.805,6.029,CST-1368DR,5170,6964,14420,0.319,551
2021-10-06T11:41:42,42.805,6.029,CST-1368DR,5170,6964,14420,0.319,551
2021-10-06T11:44:43,42.805,6.029,CST-1368DR,5170,6964,14420,0.319,551
2021-10-06T11:47:45,42.805,6.029,CST-1368DR,5170,6964,14420,0.319,551
2021-10-06T11:50:47,42.805,6.029,CST-1368DR,5170,6962,14415,0.320,551
2021-10-06T11:53:48,42.805,6.029,CST-1368DR,5170,6963,14417,0.320,551
2021-10-06T11:56:50,42.805,6.029,CST-1368DR,5170,6965,14421,0.318,551
2021-10-06T11:59:51,42.805,6.029,CST-1368DR,5170,6966,14423,0.318,551
2021-10-06T12:02:53,42.805,6.029,CST-1368DR,5170,6965,14421,0.318,550
2021-10-06T12:05:54,42.805,6.029,CST-1368DR,5170,6965,14421,0.318,551
2021-10-06T12:08:56,42.805,6.029,CST-1368DR,5170,6964,14419,0.319,551
2021-10-06T12:11:58,42.805,6.029,CST-1368DR,5170,6965,14421,0.318,551
2021-10-06T12:14:59,42.805,6.029,CST-1368DR,5170,6965,14421,0.318,551
2021-10-06T12:18:01,42.805,6.029,CST-1368DR,5170,6965,14422,0.318,551
2021-10-06T12:21:02,42.805,6.029,CST-1368DR,5170,6962,14416,0.320,551
2021-10-06T12:24:04,42.805,6.029,CST-1368DR,5170,6964,14420,0.319,551
2021-10-06T12:27:05,42.805,6.029,CST-1368DR,5170,6961,14414,0.320,551
2021-10-06T12:30:07,42.805,6.029,CST-1368DR,5170,6961,14413,0.321,551
2021-10-06T12:33:09,42.805,6.029,CST-1368DR,5170,6963,14417,0.320,551
2021-10-06T12:36:10,42.805,6.029,CST-1368DR,5170,6963,14418,0.319,551
2021-10-06T12:39:12,42.805,6.029,CST-1368DR,5170,6964,14419,0.319,551
2021-10-06T12:42:13,42.805,6.029,CST-1368DR,5170,6965,14421,0.318,551
2021-10-06T12:45:15,42.805,6.029,CST-1368DR,5170,6965,14421,0.318,551
2021-10-06T12:48:17,42.805,6.029,CST-1368DR,5170,6965,14421,0.318,551
2021-10-06T12:51:18,42.805,6.029,CST-1368DR,5170,6964,14419,0.319,551
2021-10-06T12:54:20,42.805,6.029,CST-1368DR,5170,6963,14418,0.319,551
2021-10-06T12:57:21,42.805,6.029,CST-1368DR,5170,6966,14423,0.318,551
2021-10-06T13:00:23,42.805,6.029,CST-1368DR,5170,6965,14421,0.318,551
2021-10-06T13:03:24,42.805,6.029,CST-1368DR,5170,6964,14420,0.319,551
2021-10-06T13:06:26,42.805,6.029,CST-1368DR,5170,6964,14419,0.319,551
2021-10-06T13:09:28,42.805,6.029,CST-1368DR,5170,6965,14422,0.318,551
2021-10-06T13:12:29,42.805,6.029,CST-1368DR,5170,6961,14412,0.321,551
2021-10-06T13:15:31,42.805,6.029,CST-1368DR,5170,6965,14422,0.318,551
2021-10-06T13:18:32,42.805,6.029,CST-1368DR,5170,6965,14422,0.318,551
2021-10-06T13:21:34,42.805,6.029,CST-1368DR,5170,6965,14421,0.318,551
2021-10-06T13:24:36,42.805,6.029,CST-1368DR,5170,6966,14423,0.318,551
2021-10-06T13:27:37,42.805,6.029,CST-1368DR,5170,6965,14421,0.318,551
2021-10-06T13:30:39,42.805,6.029,CST-1368DR,5170,6965,14422,0.318,551
2021-10-06T13:33:40,42.805,6.029,CST-1368DR,5170,6964,14420,0.319,551
2021-10-06T13:36:42,42.805,6.029,CST-1368DR,5170,6965,14421,0.318,551
2021-10-06T13:39:43,42.805,6.029,CST-1368DR,5170,6965,14421,0.318,551
2021-10-06T13:42:45,42.805,6.029,CST-1368DR,5170,6964,14420,0.319,551
2021-10-06T13:45:47,42.805,6.029,CST-1368DR,5170,6963,14418,0.319,550
2021-10-06T13:48:48,42.805,6.029,CST-1368DR,5170,6964,14419,0.319,551
2021-10-06T13:51:50,42.805,6.029,CST-1368DR,5170,6965,14422,0.318,551
2021-10-06T13:54:51,42.805,6.029,CST-1368DR,5170,6965,14421,0.318,551
2021-10-06T13:57:53,42.805,6.029,CST-1368DR,5170,6965,14422,0.318,551
2021-10-06T14:00:54,42.805,6.029,CST-1368DR,5170,6965,14421,0.318,550
2021-10-06T14:03:56,42.805,6.029,CST-1368DR,5170,6966,14423,0.318,551
2021-10-06T14:06:58,42.805,6.029,CST-1368DR,5170,6965,14422,0.318,551
2021-10-06T14:09:59,42.805,6.029,CST-1368DR,5170,6964,14420,0.319,551
2021-10-06T14:13:01,42.805,6.029,CST-1368DR,5170,6964,14419,0.319,551
2021-10-06T14:16:02,42.805,6.029,CST-1368DR,5170,6964,14420,0.319,551
2021-10-06T14:19:04,42.805,6.029,CST-1368DR,5170,6965,14421,0.318,551
2021-10-06T14:22:06,42.805,6.029,CST-1368DR,5170,6963,14418,0.319,551
2021-10-06T14:25:07,42.805,6.029,CST-1368DR,5170,6962,14416,0.320,551
2021-10-06T14:28:09,42.805,6.029,CST-1368DR,5170,6964,14420,0.319,551
2021-10-06T14:31:10,42.805,6.029,CST-1368DR,5170,6963,14417,0.320,551
2021-10-06T14:34:12,42.805,6.029,CST-1368DR,5170,6962,14415,0.320,551
2021-10-06T14:37:13,42.805,6.029,CST-1368DR,5170,6964,14419,0.319,551
2021-10-06T14:40:15,42.805,6.029,CST-1368DR,5170,6963,14418,0.319,551
2021-10-06T14:43:17,42.805,6.029,CST-1368DR,5170,6964,14420,0.319,550
2021-10-06T14:46:18,42.805,6.029,CST-1368DR,5170,6964,14420,0.319,551
2021-10-06T14:49:20,42.805,6.029,CST-1368DR,5170,6964,14420,0.319,550
2021-10-06T14:52:21,42.805,6.029,CST-1368DR,5170,6964,14419,0.319,551
2021-10-06T14:55:23,42.805,6.029,CST-1368DR,5170,6965,14422,0.318,551
2021-10-06T14:58:25,42.805,6.029,CST-1368DR,5170,6965,14421,0.318,551
2021-10-06T15:01:26,42.805,6.029,CST-1368DR,5170,6964,14420,0.319,551
2021-10-06T15:04:28,42.805,6.029,CST-1368DR,5170,6964,14419,0.319,551
2021-10-06T15:07:29,42.805,6.029,CST-1368DR,5170,6965,14421,0.318,551
2021-10-06T15:10:31,42.805,6.029,CST-1368DR,5170,6962,14415,0.320,551
2021-10-06T15:13:32,42.805,6.029,CST-1368DR,5170,6964,14420,0.319,551
2021-10-06T15:16:34,42.805,6.029,CST-1368DR,5170,6964,14419,0.319,551
2021-10-06T15:19:36,42.805,6.029,CST-1368DR,5170,6960,14411,0.321,551
2021-10-06T15:22:37,42.805,6.029,CST-1368DR,5170,6961,14413,0.321,551
2021-10-06T15:25:39,42.805,6.029,CST-1368DR,5170,6964,14419,0.319,551
2021-10-06T15:28:40,42.805,6.029,CST-1368DR,5170,6964,14419,0.319,551
2021-10-06T15:31:42,42.805,6.029,CST-1368DR,5170,6966,14424,0.318,551
2021-10-06T15:34:43,42.805,6.029,CST-1368DR,5170,6965,14421,0.318,551
2021-10-06T15:37:45,42.805,6.029,CST-1368DR,5170,6961,14412,0.321,551
2021-10-06T15:40:47,42.805,6.029,CST-1368DR,5170,6965,14422,0.318,551
2021-10-06T15:43:48,42.805,6.029,CST-1368DR,5170,6965,14421,0.318,551
2021-10-06T15:46:50,42.805,6.029,CST-1368DR,5170,6965,14421,0.318,551
2021-10-06T15:49:51,42.805,6.029,CST-1368DR,5170,6963,14418,0.319,551
2021-10-06T15:52:53,42.805,6.029,CST-1368DR,5170,6964,14419,0.319,551
2021-10-06T15:55:55,42.805,6.029,CST-1368DR,5170,6965,14421,0.318,550
2021-10-06T15:58:56,42.805,6.029,CST-1368DR,5170,6964,14419,0.319,551
2021-10-06T16:01:58,42.805,6.029,CST-1368DR,5170,6964,14420,0.319,551
2021-10-06T16:04:59,42.805,6.029,CST-1368DR,5170,6960,14412,0.321,551
2021-10-06T16:08:01,42.805,6.029,CST-1368DR,5170,6966,14424,0.318,551
2021-10-06T16:11:02,42.805,6.029,CST-1368DR,5170,6966,14424,0.318,551
2021-10-06T16:14:04,42.805,6.029,CST-1368DR,5170,6965,14422,0.318,551
2021-10-06T16:17:06,42.805,6.029,CST-1368DR,5170,6965,14421,0.318,551
2021-10-06T16:20:07,42.805,6.029,CST-1368DR,5170,6964,14420,0.319,551
2021-10-06T16:23:09,42.805,6.029,CST-1368DR,5170,6965,14421,0.318,550
2021-10-06T16:26:10,42.805,6.029,CST-1368DR,5170,6964,14419,0.319,551
2021-10-06T16:29:12,42.805,6.029,CST-1368DR,5170,6962,14416,0.320,551
2021-10-06T16:32:13,42.805,6.029,CST-1368DR,5170,6964,14419,0.319,551
2021-10-06T16:35:15,42.805,6.029,CST-1368DR,5170,6963,14418,0.319,551
2021-10-06T16:38:17,42.805,6.029,CST-1368DR,5170,6964,14420,0.319,551
2021-10-06T16:41:18,42.805,6.029,CST-1368DR,5170,6964,14419,0.319,551
2021-10-06T16:44:20,42.805,6.029,CST-1368DR,5170,6964,14420,0.319,551
2021-10-06T16:47:21,42.805,6.029,CST-1368DR,5170,6964,14419,0.319,551
2021-10-06T16:50:23,42.805,6.029,CST-1368DR,5170,6964,14419,0.319,551
2021-10-06T16:53:25,42.805,6.029,CST-1368DR,5170,6962,14415,0.320,551